Regional Weather Roundup
Issued by NWS Columbia, SC

Home | Current Version | Previous Version | Text Only | Print | Product List | Glossary On
Versions: 1 2 3 4 5 6 7 8 9 10 11 12 13 14 15 16 17 18 19 20 21 22 23 24 25 26 27 28 29 30 31 32 33 34 35 36 37 38 39 40 41 42 43 44 45 46 47 48 49 50
000
ASUS42 KCAE 222210
RWRCAE
REGIONAL WEATHER ROUNDUP
NATIONAL WEATHER SERVICE COLUMBIA SC
500 PM EST WED FEB 22 2017

NOTE: "FAIR" INDICATES FEW OR NO CLOUDS BELOW 12,000 FEET WITH NO
SIGNIFICANT WEATHER AND/OR OBSTRUCTIONS TO VISIBILITY.

NOT ALL STATIONS ARE QUALITY CONTROLLED BY THE NATIONAL
WEATHER SERVICE. USE DATA WITH CAUTION...ESPECIALLY
DEWPOINT OBSERVATIONS.

SCZ001>056-GAZ040-063>065-077-222300-
...UPSTATE SOUTH CAROLINA...

CITY           SKY/WX    TMP DP  RH WIND       PRES   REMARKS
ANDERSON       CLOUDY    64  56  75 N7        29.89F
LIBERTY        MOCLDY    63  56  78 E3        29.91R
SPARTANBURG    MOSUNNY   63  54  72 N7        29.90S
CLEMSON        PTSUNNY   65  55  70 NE6       29.91S
GREENVILLE     CLOUDY    62  54  74 N7        29.92S
GREENWOOD      PTSUNNY   68  55  63 NE5       29.89S
GREER          MOSUNNY   61  54  77 N8        29.90S
ROCK HILL      CLOUDY    67  55  65 N6        29.90F
CHESTER        CLOUDY    68  54  60 N6        29.90S
LAURENS        CLOUDY    66  55  68 N3        29.89S


...CENTRAL SOUTH CAROLINA...

CITY           SKY/WX    TMP DP  RH WIND       PRES   REMARKS
COLUMBIA APT   CLOUDY    73  53  49 SE9       29.87S
COLUMBIA OWENS CLOUDY    73  54  51 E3        29.88S
MCENTIRE ANGB  PTSUNNY   72  54  52 CALM      29.88S
ORANGEBURG     CLOUDY    72  55  55 E6        29.87S
SUMTER SHAW    CLOUDY    73  52  47 SE8       29.86S
AIKEN          FAIR      70  54  56 E6        29.90S
BARNWELL       MOCLDY    73  57  56 E7        29.86S
MANNING        FAIR      68  45  42 MISG      29.90R
CAMDEN         FAIR      72  52  49 CALM      29.89S
LANCASTER      MOCLDY    68  55  64 CALM      29.90S
WINNSBORO      CLOUDY    70  55  60 NE3       29.88F


...EASTERN AND COASTAL SOUTH CAROLINA...

CITY           SKY/WX    TMP DP  RH WIND       PRES   REMARKS
MYRTLE BEACH   MOSUNNY   66  55  68 E12       29.93R
N MYRTLE BCH   CLOUDY    66  57  72 E6        29.92S
CONWAY         FAIR      68  54  60 SE6       29.92S HAZE
MARION         FAIR      70  50  49 SE6       29.91S
HARTSVILLE     FAIR      72  50  46 SE6       29.88S
FLORENCE       CLOUDY    71  50  47 S10       29.89S
DARLINGTON     MOSUNNY   73  52  47 SE12      29.89S
CHARLESTON APT CLOUDY    69  59  70 E12G21    29.88S
MOUNT PLEASANT FAIR      68  61  77 CALM      29.89S
WALTERBORO     CLOUDY    70  55  60 SE9       29.88S
BEAUFORT       CLOUDY    68  62  81 E9        29.85F


...EASTERN GEORGIA...

CITY           SKY/WX    TMP DP  RH WIND       PRES   REMARKS
AUGUSTA BUSH F CLOUDY    73  58  59 E6        29.85S
AUGUSTA DANIEL MOSUNNY   72  56  57 SE5       29.86F
THOMSON        CLOUDY    69  61  76 SE5       29.90S
WASHINGTON     FAIR      70  61  73 CALM      29.86S
CLAXTON        LGT RAIN N/A N/A N/A NE9       29.84S
SYLVANIA       DRIZZLE  N/A N/A N/A SE3       29.86S
STATESBORO     LGT RAIN  65  65 100 E7        29.85S
SAVANNAH       CLOUDY    67  62  84 NE7       29.84S


...SOUTHERN NORTH CAROLINA...

CITY           SKY/WX    TMP DP  RH WIND       PRES   REMARKS
CHARLOTTE      CLOUDY    66  53  63 N8        29.92S
MONROE         CLOUDY    68  52  56 NE6       29.89F
WADESBORO      CLOUDY    70  53  54 N5        29.89F
ROCKINGHAM     CLOUDY    72  53  50 E3        29.90S
RUTHERFORDTON  MOSUNNY   60  55  81 CALM      29.94S
ASHEVILLE      PTSUNNY   57  51  80 CALM      29.94S

$$



USA.gov is the U.S. government's official web portal to all federal, state and local government web resources and services.